Regional Weather Roundup
Issued by NWS Jackson, KY

Home | Current Version | Previous Version | Text Only | Print | Product List | Glossary Off
Versions: 1 2 3 4 5 6 7 8 9 10 11 12 13 14 15 16 17 18 19 20 21 22 23 24 25 26 27 28 29 30 31 32 33 34 35 36 37 38 39 40 41 42 43 44 45 46 47 48 49 50

000
ASUS43 KJKL 042210
RWRJKL

EAST KENTUCKY HOURLY WEATHER ROUNDUP
NATIONAL WEATHER SERVICE JACKSON KY
600 PM EDT MON MAY 04 2015

NOTE: "FAIR" INDICATES FEW OR NO CLOUDS BELOW 12,000 FEET WITH
NO SIGNIFICANT WEATHER AND/OR OBSTRUCTIONS TO VISIBILITY.

* THESE REPORTS ARE NOT UNDER NWS QUALITY CONTROL AND MAY NOT
  REPORT WEATHER SUCH AS PRECIPITATION AND FOG.

KYZ079-080-083-085-087-088-110-112-115-119-120-042300
...EASTERN KENTUCKY...

CITY           SKY/WX    TMP DP  RH WIND       PRES   REMARKS
JACKSON        MOSUNNY   81  47  30 VRB3      30.22S
LONDON         PTSUNNY   82  43  25 S6        30.21S
SOMERSET*      SUNNY     79  46  31 W8        30.22S
MONTICELLO*    SUNNY     81  51  35 SW7       30.24F
MIDDLESBORO*   SUNNY     79  50  35 S7        30.23S
HARLAN APT*    PTCLDY    79  45  29 CALM      30.24S
BLACK MTN*       N/A     68  46  45 S3          N/A
PIKEVILLE APT* SUNNY     79  48  34 SW3       30.23S
BIG SANDY*     CLEAR    N/A N/A N/A W5        30.22R
MOREHEAD APT*  PTCLDY    79  52  38 SW9G16    30.22S
$$

KYZ035-036-041-042-044-050-067-078-099-042300
...CENTRAL KENTUCKY...

CITY           SKY/WX    TMP DP  RH WIND       PRES   REMARKS
MT STERLING*   MOSUNNY   79  54  41 W7        30.21S
FLEMING/MASON* SUNNY     77  54  44 SW8       30.20S
DANVILLE*      MOSUNNY   81  54  39 SW10      30.21S
RICHMOND*      SUNNY     79  52  38 W6        30.20S
LEXINGTON      MOSUNNY   79  54  41 SW10      30.19S
FRANKFORT      MOSUNNY   79  55  43 SW9       30.17R
$$

KYZ091>093-OHZ055-061-077-WVZ005-015-034-035-042-042300
...SOUTHERN OHIO/WEST VIRGINIA...

CITY           SKY/WX    TMP DP  RH WIND       PRES   REMARKS
COVINGTON      CLOUDY    80  57  45 VRB6      30.16S
COLUMBUS       CLOUDY    71  60  68 W6        30.16S
DAYTON         CLOUDY    75  57  53 SW12      30.17S
WILMINGTON     CLOUDY    75  54  47 W7        30.17S
HUNTINGTON     SUNNY     81  47  30 W10G18    30.17S
CHARLESTON     MOSUNNY   82  47  29 SW9       30.18S
PINEVILLE*     MOSUNNY   81  48  31 MISG      30.28R
BECKLEY        MOSUNNY   78  43  28 W8        30.26S
BLUEFIELD      PTSUNNY   76  41  28 W8        30.29S
$$

VAZ002-007-008-TNZ017-027-036-066-071-042300
...SOUTHWEST VIRGINIA/EAST TENNESSEE...

CITY           SKY/WX    TMP DP  RH WIND       PRES   REMARKS
WISE*          SUNNY     75  37  25 W9        30.30S
JONESVILLE*    CLEAR     81  46  30 W6        30.26S
ABINGDON*      SUNNY     78  42  27 W6        30.27S
BRISTOL        MOSUNNY   79  48  33 W8        30.24F
KNOXVILLE      MOSUNNY   80  47  31 W7        30.22S
OAK RIDGE      SUNNY     83  48  29 W3        30.23F
CROSSVILLE     MOSUNNY   77  47  34 VRB5      30.26S
NASHVILLE      PTSUNNY   82  51  34 SW8       30.19S
$$

...KEY TO REMARKS...
VSB - VISIBILITY IN MILES
WCI - WIND CHILL INDEX
HX  - HEAT INDEX

$$


USA.gov is the U.S. government's official web portal to all federal, state and local government web resources and services.